,,Stat6,,Stat2,,Stat8,,Stat9,,Stat10,,Wind1,,Wind1,
time,status,PA1M_AVG,status,PR1M_SUM,status,RH1M_AVG,status,SR1M_AVG,status,TA1M_AVG,status,W1dAve1m,status,W1sAve1m,
2007-10-21, 00:00:00,VALID,917.077,VALID,0,VALID,100,VALID,-0.0339617,VALID,19.7734,VALID,78,VALID,0.786345,
2007-10-21, 00:01:00,VALID,917.069,VALID,0,VALID,100,VALID,-0.0849042,VALID,19.7669,VALID,66,VALID,1.13338,
2007-10-21, 00:02:00,VALID,917.048,VALID,0,VALID,100,VALID,-0.0679233,VALID,19.7475,VALID,71,VALID,1.01246,
2007-10-21, 00:03:00,VALID,917.038,VALID,0,VALID,100,VALID,-0.0509425,VALID,19.7213,VALID,50,VALID,0.78468,
2007-10-21, 00:04:00,VALID,917.032,VALID,0,VALID,100,VALID,-0.0679233,VALID,19.7178,VALID,80,VALID,0.616806,
2007-10-21, 00:05:00,VALID,917.011,VALID,0,VALID,100,VALID,-0.0679233,VALID,19.7275,VALID,59,VALID,0.776456,
2007-10-21, 00:06:00,VALID,917.01,VALID,0,VALID,100,VALID,-0.0339617,VALID,19.7278,VALID,50,VALID,0.200838,
2007-10-21, 00:07:00,VALID,917.001,VALID,0,VALID,100,VALID,-0.0849042,VALID,19.7377,VALID,54,VALID,0.692587,
2007-10-21, 00:08:00,VALID,916.988,VALID,0,VALID,100,VALID,-0.0509425,VALID,19.7183,VALID,68,VALID,0.859375,
2007-10-21, 00:09:00,VALID,916.977,VALID,0,VALID,100,VALID,-0.0849042,VALID,19.7245,VALID,71,VALID,0.580729,
2007-10-21, 00:10:00,VALID,916.973,VALID,0,VALID,100,VALID,-0.0339617,VALID,19.7213,VALID,70,VALID,0.716146,
2007-10-21, 00:11:00,VALID,916.958,VALID,0,VALID,100,VALID,-0.0509425,VALID,19.7183,VALID,75,VALID,0.762649,
2007-10-21, 00:12:00,VALID,916.935,VALID,0,VALID,100,VALID,-0.0679233,VALID,19.7377,VALID,78,VALID,0.940225,
2007-10-21, 00:13:00,VALID,916.942,VALID,0,VALID,100,VALID,-0.0849042,VALID,19.7245,VALID,67,VALID,0.953835,
2007-10-21, 00:14:00,VALID,916.912,VALID,0,VALID,100,VALID,-0.0849042,VALID,19.6986,VALID,40,VALID,0.831692,
2007-10-21, 00:15:00,VALID,916.898,VALID,0,VALID,100,VALID,-0.0679233,VALID,19.6786,VALID,84,VALID,0.686719,
2007-10-21, 00:16:00,VALID,916.892,VALID,0,VALID,100,VALID,-0.0679233,VALID,19.6591,VALID,62,VALID,0.675,
2007-10-21, 00:17:00,VALID,916.88,VALID,0,VALID,100,VALID,-0.0509425,VALID,19.6888,VALID,73,VALID,1.12139,
2007-10-21, 00:18:00,VALID,916.877,VALID,0,VALID,100,VALID,-0.101885,VALID,19.6783,VALID,63,VALID,0.707919,
2007-10-21, 00:19:00,VALID,916.866,VALID,0,VALID,100,VALID,-0.0509425,VALID,19.6986,VALID,66,VALID,0.601744,
2007-10-21, 00:20:00,VALID,916.848,VALID,0,VALID,100,VALID,-0.0849042,VALID,19.7053,VALID,66,VALID,0.475204,
2007-10-21, 00:21:00,VALID,916.831,VALID,0,VALID,100,VALID,-0.101885,VALID,19.6728,VALID,61,VALID,1.01119,
2007-10-21, 00:22:00,VALID,916.826,VALID,0,VALID,100,VALID,-0.0339617,VALID,19.6656,VALID,55,VALID,0.59737,
2007-10-21, 00:23:00,VALID,916.819,VALID,0,VALID,100,VALID,0.0679233,VALID,19.6549,VALID,65,VALID,0.493712,
2007-10-21, 00:24:00,VALID,916.81,VALID,0,VALID,100,VALID,0.0339617,VALID,19.6778,VALID,77,VALID,0.381882,
2007-10-21, 00:25:00,VALID,916.801,VALID,0,VALID,100,VALID,0.0169808,VALID,19.6714,VALID,80,VALID,0.0180556,
2007-10-21, 00:26:00,VALID,916.786,VALID,0,VALID,100,VALID,0,VALID,19.6549,VALID,56,VALID,0.504001,
2007-10-21, 00:27:00,VALID,916.77,VALID,0,VALID,100,VALID,0,VALID,19.6649,VALID,73,VALID,0.41369,
2007-10-21, 00:28:00,VALID,916.778,VALID,0,VALID,100,VALID,0,VALID,19.6838,VALID,70,VALID,0.275484,
2007-10-21, 00:29:00,VALID,916.772,VALID,0,VALID,100,VALID,0,VALID,19.6971,VALID,68,VALID,0.0757631,
2007-10-21, 00:30:00,VALID,916.774,VALID,0,VALID,100,VALID,0,VALID,19.733,VALID,77,VALID,0.515625,
2007-10-21, 00:31:00,VALID,916.771,VALID,0,VALID,100,VALID,0.0339617,VALID,19.7063,VALID,74,VALID,0.828472,
2007-10-21, 00:32:00,VALID,916.763,VALID,0,VALID,100,VALID,0.0509425,VALID,19.7003,VALID,67,VALID,0.842507,
2007-10-21, 00:33:00,VALID,916.758,VALID,0,VALID,100,VALID,0.0679233,VALID,19.6936,VALID,68,VALID,1.04688,
2007-10-21, 00:34:00,VALID,916.738,VALID,0.2,VALID,100,VALID,0.0339617,VALID,19.6868,VALID,69,VALID,1.11354,
2007-10-21, 00:35:00,VALID,916.744,VALID,0,VALID,100,VALID,0.0339617,VALID,19.6806,VALID,57,VALID,0.862179,
2007-10-21, 00:36:00,VALID,916.716,VALID,0,VALID,100,VALID,0.0509425,VALID,19.6541,VALID,7,VALID,0.550174,
2007-10-21, 00:37:00,VALID,916.714,VALID,0,VALID,100,VALID,-0.0169808,VALID,19.61,VALID,22,VALID,0.53125,
2007-10-21, 00:38:00,VALID,916.718,VALID,0,VALID,100,VALID,-0.0849042,VALID,19.578,VALID,72,VALID,0.0648619,
2007-10-21, 00:39:00,VALID,916.717,VALID,0,VALID,100,VALID,-0.0679233,VALID,19.5655,VALID,210,VALID,0.243832,
2007-10-21, 00:40:00,VALID,916.713,VALID,0.2,VALID,100,VALID,-0.0849042,VALID,19.5486,VALID,244,VALID,0.0637718,
2007-10-21, 00:41:00,VALID,916.706,VALID,0,VALID,100,VALID,-0.0339617,VALID,19.5875,VALID,155,VALID,0.555753,
2007-10-21, 00:42:00,VALID,916.715,VALID,0,VALID,100,VALID,-0.0509425,VALID,19.6199,VALID,94,VALID,0.713956,
2007-10-21, 00:43:00,VALID,916.719,VALID,0,VALID,100,VALID,-0.0339617,VALID,19.6135,VALID,79,VALID,0.16915,
2007-10-21, 00:44:00,VALID,916.706,VALID,0.2,VALID,100,VALID,-0.0169808,VALID,19.6075,VALID,83,VALID,1.02028,
2007-10-21, 00:45:00,VALID,916.699,VALID,0,VALID,100,VALID,-0.0509425,VALID,19.5975,VALID,34,VALID,0.979297,
2007-10-21, 00:46:00,VALID,916.689,VALID,0,VALID,100,VALID,-0.0339617,VALID,19.581,VALID,48,VALID,0.226207,
2007-10-21, 00:47:00,VALID,916.678,VALID,0.2,VALID,100,VALID,0.0169808,VALID,19.5518,VALID,64,VALID,0.669271,
2007-10-21, 00:48:00,VALID,916.661,VALID,0,VALID,100,VALID,-0.0509425,VALID,19.5156,VALID,60,VALID,1.34793,
2007-10-21, 00:49:00,VALID,916.659,VALID,0,VALID,100,VALID,-0.0679233,VALID,19.5196,VALID,46,VALID,0.844866,
2007-10-21, 00:50:00,VALID,916.632,VALID,0,VALID,100,VALID,-0.0509425,VALID,19.5231,VALID,67,VALID,0.694141,
2007-10-21, 00:51:00,VALID,916.624,VALID,0,VALID,100,VALID,-0.0509425,VALID,19.5164,VALID,71,VALID,0.878405,
2007-10-21, 00:52:00,VALID,916.617,VALID,0,VALID,100,VALID,-0.0509425,VALID,19.5388,VALID,68,VALID,0.0199033,
2007-10-21, 00:53:00,VALID,916.603,VALID,0,VALID,100,VALID,-0.0509425,VALID,19.5453,VALID,65,VALID,0.748757,
2007-10-21, 00:54:00,VALID,916.598,VALID,0,VALID,100,VALID,-0.0509425,VALID,19.5581,VALID,51,VALID,0.212612,
2007-10-21, 00:55:00,VALID,916.591,VALID,0,VALID,100,VALID,-0.0339617,VALID,19.5096,VALID,60,VALID,0.985937,
2007-10-21, 00:56:00,VALID,916.582,VALID,0,VALID,100,VALID,-0.0339617,VALID,19.4999,VALID,57,VALID,0.976926,
2007-10-21, 00:57:00,VALID,916.568,VALID,0,VALID,100,VALID,-0.0679233,VALID,19.474,VALID,47,VALID,1.22433,
2007-10-21, 00:58:00,VALID,916.562,VALID,0,VALID,100,VALID,-0.0339617,VALID,19.4513,VALID,53,VALID,1.18377,
2007-10-21, 00:59:00,VALID,916.55,VALID,0,VALID,100,VALID,-0.0509425,VALID,19.445,VALID,65,VALID,0.871548,
2007-10-21, 01:00:00,VALID,916.532,VALID,0,VALID,100,VALID,-0.0339617,VALID,19.4577,VALID,64,VALID,0.736861,
2007-10-21, 01:01:00,VALID,916.532,VALID,0,VALID,100,VALID,-0.0169808,VALID,19.4645,VALID,58,VALID,0.935547,
2007-10-21, 01:02:00,VALID,916.527,VALID,0,VALID,100,VALID,-0.0169808,VALID,19.4837,VALID,64,VALID,0.37862,
2007-10-21, 01:03:00,VALID,916.505,VALID,0,VALID,100,VALID,-0.0169808,VALID,19.4869,VALID,71,VALID,1.13427,
2007-10-21, 01:04:00,VALID,916.492,VALID,0,VALID,100,VALID,-0.0169808,VALID,19.4802,VALID,65,VALID,1.14329,
2007-10-21, 01:05:00,VALID,916.467,VALID,0,VALID,100,VALID,0.0339617,VALID,19.467,VALID,69,VALID,1.09551,
2007-10-21, 01:06:00,VALID,916.445,VALID,0,VALID,100,VALID,-0.0169808,VALID,19.467,VALID,59,VALID,1.04597,
2007-10-21, 01:07:00,VALID,916.434,VALID,0,VALID,100,VALID,-0.0849042,VALID,19.4847,VALID,39,VALID,0.77907,
2007-10-21, 01:08:00,VALID,916.423,VALID,0,VALID,100,VALID,-0.152827,VALID,19.4657,VALID,43,VALID,0.942708,
2007-10-21, 01:09:00,VALID,916.417,VALID,0,VALID,100,VALID,-0.169808,VALID,19.4592,VALID,64,VALID,1.25302,
2007-10-21, 01:10:00,VALID,916.403,VALID,0,VALID,100,VALID,-0.101885,VALID,19.4951,VALID,60,VALID,0.870821,
2007-10-21, 01:11:00,VALID,916.39,VALID,0,VALID,100,VALID,-0.135847,VALID,19.4719,VALID,46,VALID,1.07775,
2007-10-21, 01:12:00,VALID,916.381,VALID,0,VALID,100,VALID,-0.135847,VALID,19.456,VALID,40,VALID,1.63164,
2007-10-21, 01:13:00,VALID,916.375,VALID,0,VALID,100,VALID,-0.152827,VALID,19.433,VALID,58,VALID,0.945668,
2007-10-21, 01:14:00,VALID,916.383,VALID,0,VALID,100,VALID,-0.118866,VALID,19.4135,VALID,59,VALID,0.775923,
2007-10-21, 01:15:00,VALID,916.382,VALID,0,VALID,100,VALID,-0.118866,VALID,19.4492,VALID,61,VALID,0.860119,
2007-10-21, 01:16:00,VALID,916.374,VALID,0,VALID,100,VALID,-0.135847,VALID,19.4527,VALID,67,VALID,0.599888,
2007-10-21, 01:17:00,VALID,916.346,VALID,0,VALID,100,VALID,-0.135847,VALID,19.4397,VALID,66,VALID,0.873355,
2007-10-21, 01:18:00,VALID,916.325,VALID,0,VALID,100,VALID,-0.118866,VALID,19.43,VALID,61,VALID,1.08021,
2007-10-21, 01:19:00,VALID,916.322,VALID,0,VALID,100,VALID,-0.118866,VALID,19.4303,VALID,56,VALID,0.549782,
2007-10-21, 01:20:00,VALID,916.299,VALID,0,VALID,100,VALID,-0.135847,VALID,19.4465,VALID,64,VALID,1.02401,
2007-10-21, 01:21:00,VALID,916.287,VALID,0,VALID,100,VALID,-0.135847,VALID,19.4597,VALID,57,VALID,0.46875,
2007-10-21, 01:22:00,VALID,916.267,VALID,0,VALID,100,VALID,-0.0679233,VALID,19.455,VALID,73,VALID,0.460938,
2007-10-21, 01:23:00,VALID,916.261,VALID,0,VALID,100,VALID,-0.0169808,VALID,19.4577,VALID,75,VALID,0.414244,
2007-10-21, 01:24:00,VALID,916.244,VALID,0,VALID,100,VALID,-0.0339617,VALID,19.4318,VALID,75,VALID,0.465701,
2007-10-21, 01:25:00,VALID,916.223,VALID,0,VALID,100,VALID,-0.0679233,VALID,19.4615,VALID,73,VALID,0.0569196,
2007-10-21, 01:26:00,VALID,916.242,VALID,0.2,VALID,100,VALID,-0.0509425,VALID,19.4508,VALID,61,VALID,0.601926,
2007-10-21, 01:27:00,VALID,916.235,VALID,0,VALID,100,VALID,-0.0339617,VALID,19.4385,VALID,56,VALID,1.38858,
2007-10-21, 01:28:00,VALID,916.246,VALID,0,VALID,100,VALID,-0.0679233,VALID,19.3961,VALID,48,VALID,0.820833,
2007-10-21, 01:29:00,VALID,916.235,VALID,0,VALID,100,VALID,-0.0509425,VALID,19.4091,VALID,65,VALID,0.703125,
2007-10-21, 01:30:00,VALID,916.242,VALID,0,VALID,100,VALID,-0.0169808,VALID,19.4253,VALID,64,VALID,0.940848,
2007-10-21, 01:31:00,VALID,916.229,VALID,0,VALID,100,VALID,-0.0339617,VALID,19.4513,VALID,62,VALID,0.224848,
2007-10-21, 01:32:00,VALID,916.238,VALID,0.2,VALID,100,VALID,-0.0339617,VALID,19.4612,VALID,64,VALID,0.0713141,
2007-10-21, 01:33:00,VALID,916.21,VALID,0,VALID,100,VALID,-0.0849042,VALID,19.4677,VALID,66,VALID,0,
2007-10-21, 01:34:00,VALID,916.21,VALID,0,VALID,100,VALID,-0.0679233,VALID,19.4747,VALID,66,VALID,0,
2007-10-21, 01:35:00,VALID,916.188,VALID,0.2,VALID,100,VALID,-0.0509425,VALID,19.4445,VALID,61,VALID,0.770461,
2007-10-21, 01:36:00,VALID,916.171,VALID,0,VALID,100,VALID,-0.0339617,VALID,19.451,VALID,63,VALID,0.792969,
2007-10-21, 01:37:00,VALID,916.164,VALID,0,VALID,100,VALID,-0.0169808,VALID,19.4642,VALID,61,VALID,0.345465,
2007-10-21, 01:38:00,VALID,916.164,VALID,0,VALID,100,VALID,-0.0339617,VALID,19.4318,VALID,55,VALID,0.613948,
2007-10-21, 01:39:00,VALID,916.146,VALID,0,VALID,100,VALID,-0.0339617,VALID,19.4121,VALID,48,VALID,0.486861,
2007-10-21, 01:40:00,VALID,916.143,VALID,0,VALID,100,VALID,-0.0679233,VALID,19.4195,VALID,49,VALID,0.245898,
2007-10-21, 01:41:00,VALID,916.134,VALID,0.2,VALID,100,VALID,-0.0679233,VALID,19.4158,VALID,59,VALID,0.670313,
2007-10-21, 01:42:00,VALID,916.112,VALID,0,VALID,100,VALID,-0.0679233,VALID,19.4263,VALID,74,VALID,0.252096,
2007-10-21, 01:43:00,VALID,916.103,VALID,0,VALID,100,VALID,-0.0679233,VALID,19.4423,VALID,79,VALID,0.0399503,
2007-10-21, 01:44:00,VALID,916.093,VALID,0,VALID,100,VALID,-0.0849042,VALID,19.4485,VALID,65,VALID,1.01799,
2007-10-21, 01:45:00,VALID,916.095,VALID,0,VALID,100,VALID,-0.0849042,VALID,19.4128,VALID,53,VALID,0.42016,
2007-10-21, 01:46:00,VALID,916.071,VALID,0,VALID,100,VALID,-0.0849042,VALID,19.4188,VALID,52,VALID,0.159268,
2007-10-21, 01:47:00,VALID,916.063,VALID,0,VALID,100,VALID,-0.0509425,VALID,19.4253,VALID,53,VALID,0,
2007-10-21, 01:48:00,VALID,916.048,VALID,0,VALID,100,VALID,-0.0849042,VALID,19.4131,VALID,63,VALID,0.85766,
2007-10-21, 01:49:00,VALID,916.042,VALID,0,VALID,100,VALID,-0.0509425,VALID,19.4033,VALID,63,VALID,0.956214,
2007-10-21, 01:50:00,VALID,916.034,VALID,0,VALID,100,VALID,-0.0339617,VALID,19.439,VALID,82,VALID,0.175495,
2007-10-21, 01:51:00,VALID,916.039,VALID,0,VALID,100,VALID,-0.0679233,VALID,19.432,VALID,77,VALID,0.0745908,
2007-10-21, 01:52:00,VALID,916.026,VALID,0,VALID,100,VALID,-0.0169808,VALID,19.4385,VALID,55,VALID,0,
2007-10-21, 01:53:00,VALID,916,VALID,0,VALID,100,VALID,-0.0339617,VALID,19.4283,VALID,57,VALID,0.0472384,
2007-10-21, 01:54:00,VALID,915.995,VALID,0,VALID,100,VALID,0,VALID,19.435,VALID,70,VALID,0.486914,
2007-10-21, 01:55:00,VALID,915.999,VALID,0.2,VALID,100,VALID,-0.0169808,VALID,19.4415,VALID,69,VALID,0.492001,
2007-10-21, 01:56:00,VALID,915.97,VALID,0,VALID,100,VALID,0,VALID,19.4285,VALID,59,VALID,0.519622,
2007-10-21, 01:57:00,VALID,915.972,VALID,0,VALID,100,VALID,-0.0169808,VALID,19.4345,VALID,57,VALID,0.0881177,
2007-10-21, 01:58:00,VALID,915.962,VALID,0,VALID,100,VALID,0,VALID,19.4445,VALID,57,VALID,0,
2007-10-21, 01:59:00,VALID,915.949,VALID,0,VALID,100,VALID,0,VALID,19.4121,VALID,58,VALID,0.287847,
2007-10-21, 02:00:00,VALID,915.948,VALID,0,VALID,100,VALID,-0.0169808,VALID,19.4285,VALID,61,VALID,0.223264,
2007-10-21, 02:01:00,VALID,915.934,VALID,0,VALID,100,VALID,-0.0169808,VALID,19.4448,VALID,63,VALID,0.496951,
2007-10-21, 02:02:00,VALID,915.926,VALID,0,VALID,100,VALID,0,VALID,19.4188,VALID,58,VALID,0.71841,
2007-10-21, 02:03:00,VALID,915.932,VALID,0,VALID,100,VALID,-0.0169808,VALID,19.4216,VALID,52,VALID,0.930618,
2007-10-21, 02:04:00,VALID,915.935,VALID,0,VALID,100,VALID,0,VALID,19.4348,VALID,52,VALID,0.812872,
2007-10-21, 02:05:00,VALID,915.92,VALID,0,VALID,100,VALID,0.0169808,VALID,19.4153,VALID,33,VALID,0.696007,
2007-10-21, 02:06:00,VALID,915.899,VALID,0,VALID,100,VALID,0,VALID,19.3921,VALID,61,VALID,0.891555,
2007-10-21, 02:07:00,VALID,915.908,VALID,0,VALID,100,VALID,0,VALID,19.4251,VALID,59,VALID,0.21895,
2007-10-21, 02:08:00,VALID,915.901,VALID,0,VALID,100,VALID,-0.0169808,VALID,19.4478,VALID,59,VALID,0.0565476,
2007-10-21, 02:09:00,VALID,915.908,VALID,0,VALID,100,VALID,0,VALID,19.4642,VALID,59,VALID,0.177401,
2007-10-21, 02:10:00,VALID,915.911,VALID,0,VALID,100,VALID,0,VALID,19.4577,VALID,59,VALID,0.121433,
2007-10-21, 02:11:00,VALID,915.886,VALID,0,VALID,100,VALID,0,VALID,19.4513,VALID,1,VALID,0.294588,
2007-10-21, 02:12:00,VALID,915.862,VALID,0,VALID,100,VALID,0.0169808,VALID,19.4315,VALID,21,VALID,0.300686,
2007-10-21, 02:13:00,VALID,915.854,VALID,0,VALID,100,VALID,0,VALID,19.4315,VALID,44,VALID,0.356357,
2007-10-21, 02:14:00,VALID,915.826,VALID,0,VALID,100,VALID,0.0169808,VALID,19.4118,VALID,58,VALID,0.562691,
2007-10-21, 02:15:00,VALID,915.816,VALID,0,VALID,100,VALID,0,VALID,19.4315,VALID,62,VALID,0.684416,
2007-10-21, 02:16:00,VALID,915.788,VALID,0,VALID,100,VALID,0,VALID,19.441,VALID,58,VALID,0.46782,
2007-10-21, 02:17:00,VALID,915.775,VALID,0,VALID,100,VALID,0.0169808,VALID,19.4508,VALID,95,VALID,0.63548,
2007-10-21, 02:18:00,VALID,915.766,VALID,0,VALID,100,VALID,0.0169808,VALID,19.4448,VALID,120,VALID,0.805575,
2007-10-21, 02:19:00,VALID,915.737,VALID,0,VALID,100,VALID,-0.0169808,VALID,19.4216,VALID,83,VALID,0.629383,
2007-10-21, 02:20:00,VALID,915.714,VALID,0,VALID,100,VALID,0.0169808,VALID,19.4021,VALID,74,VALID,0.224254,
2007-10-21, 02:21:00,VALID,915.701,VALID,0,VALID,100,VALID,0,VALID,19.3929,VALID,74,VALID,0.185243,
2007-10-21, 02:22:00,VALID,915.677,VALID,0,VALID,100,VALID,-0.0169808,VALID,19.3896,VALID,82,VALID,0.471484,
2007-10-21, 02:23:00,VALID,915.642,VALID,0,VALID,100,VALID,-0.0169808,VALID,19.3864,VALID,90,VALID,0.46875,
2007-10-21, 02:24:00,VALID,915.627,VALID,0,VALID,100,VALID,0,VALID,19.3731,VALID,105,VALID,0.377232,
2007-10-21, 02:25:00,VALID,915.606,VALID,0,VALID,100,VALID,0,VALID,19.3799,VALID,105,VALID,0.590625,
2007-10-21, 02:26:00,VALID,915.579,VALID,0,VALID,100,VALID,-0.0339617,VALID,19.3864,VALID,76,VALID,0.578887,
2007-10-21, 02:27:00,VALID,915.553,VALID,0,VALID,100,VALID,-0.0339617,VALID,19.3901,VALID,81,VALID,0.861737,
2007-10-21, 02:28:00,VALID,915.524,VALID,0,VALID,100,VALID,-0.0169808,VALID,19.3602,VALID,88,VALID,0.696289,
2007-10-21, 02:29:00,VALID,915.509,VALID,0,VALID,100,VALID,0,VALID,19.3637,VALID,102,VALID,0.970312,
2007-10-21, 02:30:00,VALID,915.489,VALID,0,VALID,100,VALID,-0.0169808,VALID,19.3704,VALID,100,VALID,0.519531,
2007-10-21, 02:31:00,VALID,915.48,VALID,0,VALID,100,VALID,-0.0339617,VALID,19.3542,VALID,103,VALID,0.664844,
2007-10-21, 02:32:00,VALID,915.47,VALID,0,VALID,100,VALID,-0.0509425,VALID,19.3215,VALID,111,VALID,0.594703,
2007-10-21, 02:33:00,VALID,915.45,VALID,0,VALID,100,VALID,-0.0169808,VALID,19.3182,VALID,122,VALID,0.507068,
2007-10-21, 02:34:00,VALID,915.434,VALID,0,VALID,100,VALID,0,VALID,19.3053,VALID,112,VALID,1.19289,
2007-10-21, 02:35:00,VALID,915.434,VALID,0,VALID,100,VALID,-0.0509425,VALID,19.2988,VALID,117,VALID,0.949963,
2007-10-21, 02:36:00,VALID,915.417,VALID,0,VALID,100,VALID,-0.0509425,VALID,19.289,VALID,115,VALID,0.772507,
2007-10-21, 02:37:00,VALID,915.414,VALID,0,VALID,100,VALID,0,VALID,19.2925,VALID,124,VALID,0.593378,
2007-10-21, 02:38:00,VALID,915.406,VALID,0.2,VALID,100,VALID,-0.0169808,VALID,19.2923,VALID,123,VALID,0.478795,
2007-10-21, 02:39:00,VALID,915.389,VALID,0,VALID,100,VALID,-0.0509425,VALID,19.3023,VALID,118,VALID,0.355373,
2007-10-21, 02:40:00,VALID,915.38,VALID,0,VALID,100,VALID,-0.0339617,VALID,19.2923,VALID,118,VALID,0.262091,
2007-10-21, 02:41:00,VALID,915.372,VALID,0,VALID,100,VALID,0,VALID,19.2888,VALID,119,VALID,0.108073,
2007-10-21, 02:42:00,VALID,915.374,VALID,0,VALID,100,VALID,0.0169808,VALID,19.2923,VALID,119,VALID,0,
2007-10-21, 02:43:00,VALID,915.36,VALID,0,VALID,100,VALID,-0.0169808,VALID,19.2923,VALID,119,VALID,0.00106534,
2007-10-21, 02:44:00,VALID,915.358,VALID,0,VALID,100,VALID,0.0169808,VALID,19.292,VALID,119,VALID,0.00106534,
2007-10-21, 02:45:00,VALID,915.35,VALID,0,VALID,100,VALID,0,VALID,19.289,VALID,119,VALID,0.0812872,
2007-10-21, 02:46:00,VALID,915.332,VALID,0,VALID,100,VALID,0,VALID,19.2853,VALID,119,VALID,0.116832,
2007-10-21, 02:47:00,VALID,915.332,VALID,0,VALID,100,VALID,0,VALID,19.2823,VALID,119,VALID,0.0800781,
2007-10-21, 02:48:00,VALID,915.336,VALID,0,VALID,100,VALID,0,VALID,19.2923,VALID,119,VALID,0.102385,
2007-10-21, 02:49:00,VALID,915.327,VALID,0,VALID,100,VALID,0,VALID,19.3015,VALID,152,VALID,0.215511,
2007-10-21, 02:50:00,VALID,915.324,VALID,0,VALID,100,VALID,0.0169808,VALID,19.3085,VALID,218,VALID,0.576172,
2007-10-21, 02:51:00,VALID,915.311,VALID,0,VALID,100,VALID,-0.0339617,VALID,19.3085,VALID,219,VALID,0.575335,
2007-10-21, 02:52:00,VALID,915.314,VALID,0,VALID,100,VALID,0,VALID,19.2988,VALID,216,VALID,0.596912,
2007-10-21, 02:53:00,VALID,915.31,VALID,0,VALID,100,VALID,-0.0169808,VALID,19.2958,VALID,213,VALID,0.56392,
2007-10-21, 02:54:00,VALID,915.295,VALID,0,VALID,100,VALID,0,VALID,19.2823,VALID,218,VALID,0.931176,
2007-10-21, 02:55:00,VALID,915.287,VALID,0,VALID,100,VALID,-0.0169808,VALID,19.2693,VALID,221,VALID,0.872142,
2007-10-21, 02:56:00,VALID,915.261,VALID,0,VALID,100,VALID,-0.0169808,VALID,19.2691,VALID,214,VALID,0.690048,
2007-10-21, 02:57:00,VALID,915.258,VALID,0,VALID,100,VALID,0,VALID,19.2858,VALID,205,VALID,0.283558,
2007-10-21, 02:58:00,VALID,915.252,VALID,0,VALID,100,VALID,-0.0509425,VALID,19.289,VALID,205,VALID,0.423781,
2007-10-21, 02:59:00,VALID,915.252,VALID,0,VALID,100,VALID,0,VALID,19.289,VALID,205,VALID,0,
2007-10-21, 03:00:00,VALID,915.253,VALID,0,VALID,100,VALID,-0.0339617,VALID,19.3053,VALID,205,VALID,0.00114329,
2007-10-21, 03:01:00,VALID,915.254,VALID,0,VALID,100,VALID,0,VALID,19.3148,VALID,205,VALID,0.00260417,
2007-10-21, 03:02:00,VALID,915.265,VALID,0,VALID,100,VALID,0,VALID,19.3115,VALID,217,VALID,0.272135,
2007-10-21, 03:03:00,VALID,915.264,VALID,0,VALID,100,VALID,0,VALID,19.3053,VALID,216,VALID,0.17152,
2007-10-21, 03:04:00,VALID,915.26,VALID,0,VALID,100,VALID,-0.0169808,VALID,19.3085,VALID,216,VALID,0.207403,
2007-10-21, 03:05:00,VALID,915.248,VALID,0,VALID,100,VALID,-0.0169808,VALID,19.3217,VALID,216,VALID,0.366477,
2007-10-21, 03:06:00,VALID,915.246,VALID,0,VALID,100,VALID,-0.0169808,VALID,19.3053,VALID,217,VALID,0.5754,
2007-10-21, 03:07:00,VALID,915.259,VALID,0,VALID,100,VALID,-0.0169808,VALID,19.302,VALID,215,VALID,0.423177,
2007-10-21, 03:08:00,VALID,915.259,VALID,0,VALID,100,VALID,0,VALID,19.2888,VALID,224,VALID,0.357279,
2007-10-21, 03:09:00,VALID,915.271,VALID,0,VALID,100,VALID,0,VALID,19.2923,VALID,223,VALID,0.0341082,
2007-10-21, 03:10:00,VALID,915.277,VALID,0,VALID,100,VALID,0,VALID,19.2888,VALID,214,VALID,0.157118,
2007-10-21, 03:11:00,VALID,915.263,VALID,0,VALID,100,VALID,0,VALID,19.3053,VALID,212,VALID,0.0158067,
2007-10-21, 03:12:00,VALID,915.264,VALID,0,VALID,100,VALID,-0.0169808,VALID,19.2953,VALID,211,VALID,0.192336,
2007-10-21, 03:13:00,VALID,915.263,VALID,0,VALID,100,VALID,0.0169808,VALID,19.302,VALID,209,VALID,0.129688,
2007-10-21, 03:14:00,VALID,915.258,VALID,0,VALID,100,VALID,0.0169808,VALID,19.289,VALID,209,VALID,0,
2007-10-21, 03:15:00,VALID,915.244,VALID,0,VALID,100,VALID,0,VALID,19.2888,VALID,209,VALID,0,
2007-10-21, 03:16:00,VALID,915.22,VALID,0,VALID,100,VALID,-0.0169808,VALID,19.2883,VALID,208,VALID,0,
2007-10-21, 03:17:00,VALID,915.218,VALID,0,VALID,100,VALID,-0.0169808,VALID,19.3018,VALID,196,VALID,0.404552,
2007-10-21, 03:18:00,VALID,915.204,VALID,0,VALID,100,VALID,0,VALID,19.2958,VALID,183,VALID,0.3508,
2007-10-21, 03:19:00,VALID,915.198,VALID,0,VALID,100,VALID,0,VALID,19.2826,VALID,184,VALID,0.519336,
2007-10-21, 03:20:00,VALID,915.205,VALID,0,VALID,100,VALID,0,VALID,19.2758,VALID,184,VALID,0.306996,
2007-10-21, 03:21:00,VALID,915.19,VALID,0,VALID,100,VALID,0.0169808,VALID,19.2756,VALID,184,VALID,0.211868,
2007-10-21, 03:22:00,VALID,915.183,VALID,0,VALID,100,VALID,0.0169808,VALID,19.2793,VALID,183,VALID,0.192336,
2007-10-21, 03:23:00,VALID,915.185,VALID,0,VALID,100,VALID,-0.0339617,VALID,19.2726,VALID,177,VALID,0.336138,
2007-10-21, 03:24:00,VALID,915.17,VALID,0,VALID,100,VALID,0,VALID,19.2728,VALID,177,VALID,0.0904018,
2007-10-21, 03:25:00,VALID,915.159,VALID,0,VALID,100,VALID,0,VALID,19.2696,VALID,177,VALID,0.463034,
2007-10-21, 03:26:00,VALID,915.148,VALID,0,VALID,100,VALID,0,VALID,19.2631,VALID,174,VALID,0.344815,
2007-10-21, 03:27:00,VALID,915.141,VALID,0,VALID,100,VALID,-0.0169808,VALID,19.2429,VALID,173,VALID,0.346657,
2007-10-21, 03:28:00,VALID,915.136,VALID,0,VALID,100,VALID,-0.0169808,VALID,19.2434,VALID,173,VALID,0.153125,
2007-10-21, 03:29:00,VALID,915.136,VALID,0,VALID,100,VALID,-0.0509425,VALID,19.2339,VALID,173,VALID,0.213299,
2007-10-21, 03:30:00,VALID,915.135,VALID,0,VALID,100,VALID,-0.0509425,VALID,19.2242,VALID,173,VALID,0.0440848,
2007-10-21, 03:31:00,VALID,915.132,VALID,0,VALID,100,VALID,-0.0339617,VALID,19.2112,VALID,173,VALID,0,
2007-10-21, 03:32:00,VALID,915.144,VALID,0,VALID,100,VALID,-0.0169808,VALID,19.2114,VALID,173,VALID,0,
2007-10-21, 03:33:00,VALID,915.15,VALID,0,VALID,100,VALID,-0.0509425,VALID,19.2147,VALID,173,VALID,0.282552,
2007-10-21, 03:34:00,VALID,915.153,VALID,0,VALID,100,VALID,-0.0339617,VALID,19.2015,VALID,173,VALID,0,
2007-10-21, 03:35:00,VALID,915.171,VALID,0,VALID,100,VALID,-0.0169808,VALID,19.198,VALID,173,VALID,0.0606497,
2007-10-21, 03:36:00,VALID,915.183,VALID,0,VALID,100,VALID,0,VALID,19.2112,VALID,173,VALID,0,
2007-10-21, 03:37:00,VALID,915.195,VALID,0,VALID,100,VALID,-0.0169808,VALID,19.2075,VALID,173,VALID,0,
2007-10-21, 03:38:00,VALID,915.203,VALID,0,VALID,100,VALID,-0.0339617,VALID,19.202,VALID,173,VALID,0.139382,
2007-10-21, 03:39:00,VALID,915.223,VALID,0,VALID,100,VALID,-0.0169808,VALID,19.1885,VALID,173,VALID,0.0452398,
2007-10-21, 03:40:00,VALID,915.235,VALID,0,VALID,100,VALID,-0.0169808,VALID,19.1855,VALID,173,VALID,0.169513,